Aérodrome :
LOGIN :

S'inscrire | Disclaimer

   EN    FR    IT 

 










Légende :    VFR   VFR Marginal   IFR   IFR Intensif   IFR Très Intensif
Visi : 
Plafond : 
>= 8 km
>= 3000ft
5 à 8 km
1000 à 3000 ft
1500m à 5 km
500 à 1000 ft
800 à 1500m
200 à 500 ft
< 800m
< 200 ft
Symboles :   Orages  Brouillard  Fortes neiges  Fortes précipitations  Vent > 20 kt
SIGMETs :   Divers  Orages  Givrage  Turbulence  Onde Orograph.  Cendres Volcan.







- Altitude de l'aérodrome : 302 ft
- Voir les cartes d'approche


LFPM - Melun Villaroche

DERNIER METAR :
  • 171130Z AUTO 00000KT 5000 BR OVC003 03/02 Q1027

METARs EXPIRÉS :
  • 171100Z AUTO 00000KT 2300 BR OVC002 03/03 Q1027
  • 171030Z AUTO 00000KT 0600 0550 FG OVC002 02/02 Q1027
  • 171000Z AUTO 00000KT 0650 FG VV/// 02/02 Q1027
  • 170930Z AUTO 10001KT 0450 FG VV/// 01/01 Q1027
  • 170900Z AUTO 25002KT 0300 0250 FG VV/// 01/00 Q1026

Prévision TAF périmée.
ATIS : +33 1 64 14 28 44
Pas de NOTAMs connus pour ce terrain.



MET'MAP, la Météo Aéronautique d'un coup d'oeil ! - Copyright ORBIFLY Décembre 2007 - Disclaimer

ORBIFLY MET'MAP TEAM :

Programmation & Développement : Alexandra Zaïnal
Conception & Développement : Baudouin d'Aumeries
Co-Programmation & Développement : Marc-Olivier Méhu
Soutien technique & logistique : Manuel Goepfert

Contact : metmap@orbifly.com




SOURCES & CREDITS :

   NOAA